Previsão horária em Almoradi

Hoje, 16 Janeiro, Sábado

Tempo Temperatura Precipitação Vento Pressão Humidade
00:00 +6°C° 0 mm 5 m/s 765 mmHg 53%
01:00 +6°C° 0 mm 4 m/s 765 mmHg 54%
02:00 +6°C° 0 mm 4 m/s 764 mmHg 55%
03:00 +5°C° 0 mm 4 m/s 764 mmHg 57%
04:00 +5°C° 0 mm 4 m/s 765 mmHg 57%
05:00 +5°C° 0 mm 3 m/s 765 mmHg 58%
06:00 +4°C° 0 mm 4 m/s 765 mmHg 59%
07:00 +5°C° 0 mm 3 m/s 766 mmHg 57%
08:00 +7°C° 0 mm 3 m/s 766 mmHg 54%
09:00 +8°C° 0 mm 3 m/s 767 mmHg 51%
10:00 +10°C° 0 mm 2 m/s 767 mmHg 47%
11:00 +12°C° 0 mm 2 m/s 767 mmHg 43%
12:00 +14°C° 0 mm 2 m/s 767 mmHg 39%
13:00 +14°C° 0 mm 1 m/s 767 mmHg 37%
14:00 +15°C° 0 mm 1 m/s 767 mmHg 36%
15:00 +15°C° 0 mm 1 m/s 767 mmHg 34%
16:00 +13°C° 0 mm 1 m/s 767 mmHg 44%
17:00 +10°C° 0 mm 2 m/s 767 mmHg 54%
18:00 +8°C° 0 mm 2 m/s 767 mmHg 63%
19:00 +8°C° 0 mm 2 m/s 768 mmHg 67%
20:00 +8°C° 0 mm 2 m/s 768 mmHg 70%
21:00 +7°C° 0 mm 2 m/s 768 mmHg 73%
22:00 +7°C° 0 mm 2 m/s 768 mmHg 70%
23:00 +7°C° 0 mm 2 m/s 769 mmHg 67%

Amanhã, 17 Janeiro, Domingo

Tempo Temperatura Precipitação Vento Pressão Humidade
00:00 +7°C° 0 mm 2 m/s 769 mmHg 64%
01:00 +7°C° 0 mm 3 m/s 768 mmHg 61%
02:00 +7°C° 0 mm 3 m/s 768 mmHg 58%
03:00 +7°C° 0 mm 3 m/s 767 mmHg 56%
04:00 +7°C° 0 mm 3 m/s 767 mmHg 52%
05:00 +7°C° 0 mm 3 m/s 767 mmHg 49%
06:00 +6°C° 0 mm 4 m/s 767 mmHg 46%
07:00 +7°C° 0 mm 4 m/s 767 mmHg 44%
08:00 +8°C° 0 mm 4 m/s 768 mmHg 42%
09:00 +11°C° 0 mm 4 m/s 768 mmHg 40%
10:00 +13°C° 0 mm 4 m/s 767 mmHg 37%
11:00 +15°C° 0 mm 4 m/s 767 mmHg 34%
12:00 +18°C° 0 mm 4 m/s 767 mmHg 31%
13:00 +19°C° 0 mm 4 m/s 767 mmHg 32%
14:00 +19°C° 0 mm 3 m/s 766 mmHg 33%
15:00 +20°C° 0 mm 3 m/s 765 mmHg 34%
16:00 +18°C° 0 mm 3 m/s 766 mmHg 38%
17:00 +16°C° 0 mm 3 m/s 766 mmHg 43%
18:00 +13°C° 0 mm 3 m/s 766 mmHg 48%
19:00 +12°C° 0 mm 3 m/s 766 mmHg 48%
20:00 +12°C° 0 mm 3 m/s 766 mmHg 49%
21:00 +11°C° 0 mm 4 m/s 767 mmHg 49%
22:00 +11°C° 0 mm 3 m/s 767 mmHg 50%
23:00 +11°C° 0 mm 3 m/s 767 mmHg 51%

Depois de amanhã, 18 Janeiro, Segunda-feira

Tempo Temperatura Precipitação Vento Pressão Humidade
00:00 +10°C° 0 mm 3 m/s 767 mmHg 52%
01:00 +10°C° 0 mm 3 m/s 767 mmHg 55%
02:00 +9°C° 0 mm 3 m/s 766 mmHg 59%
03:00 +9°C° 0 mm 2 m/s 766 mmHg 62%
04:00 +8°C° 0 mm 2 m/s 766 mmHg 65%
05:00 +8°C° 0 mm 2 m/s 766 mmHg 67%
06:00 +9°C° 0 mm 1 m/s 766 mmHg 70%
07:00 +10°C° 0 mm 1 m/s 767 mmHg 66%
08:00 +12°C° 0 mm 1 m/s 767 mmHg 63%
09:00 +13°C° 0 mm 1 m/s 767 mmHg 59%
10:00 +14°C° 0 mm 1 m/s 767 mmHg 58%
11:00 +15°C° 0 mm 1 m/s 767 mmHg 56%
12:00 +16°C° 0 mm 2 m/s 767 mmHg 55%
13:00 +17°C° 0 mm 2 m/s 767 mmHg 55%
14:00 +17°C° 0 mm 2 m/s 766 mmHg 55%
15:00 +17°C° 0 mm 2 m/s 766 mmHg 55%
16:00 +15°C° 0 mm 2 m/s 766 mmHg 65%
17:00 +13°C° 0 mm 2 m/s 766 mmHg 76%
18:00 +11°C° 0 mm 1 m/s 767 mmHg 87%
19:00 +10°C° 0 mm 1 m/s 767 mmHg 88%
20:00 +10°C° 0 mm 1 m/s 767 mmHg 89%
21:00 +8°C° 0 mm 0 m/s 767 mmHg 91%
22:00 +8°C° 0 mm 0 m/s 767 mmHg 91%
23:00 +8°C° 0 mm 0 m/s 767 mmHg 91%

19 Janeiro, Terça-feira

Tempo Temperatura Precipitação Vento Pressão Humidade
00:00 +7°C° 0 mm 0 m/s 767 mmHg 90%
01:00 +7°C° 0 mm 0 m/s 767 mmHg 90%
02:00 +7°C° 0 mm 0 m/s 766 mmHg 90%
03:00 +7°C° 0 mm 0 m/s 766 mmHg 90%
04:00 +6°C° 0 mm 0 m/s 766 mmHg 89%
05:00 +7°C° 0 mm 1 m/s 766 mmHg 89%
06:00 +7°C° 0 mm 1 m/s 765 mmHg 89%
07:00 +9°C° 0 mm 1 m/s 766 mmHg 83%
08:00 +11°C° 0 mm 1 m/s 766 mmHg 78%
09:00 +13°C° 0 mm 1 m/s 766 mmHg 73%
10:00 +14°C° 0 mm 1 m/s 765 mmHg 66%
11:00 +15°C° 0 mm 1 m/s 765 mmHg 59%
12:00 +16°C° 0 mm 1 m/s 765 mmHg 53%
13:00 +17°C° 0 mm 2 m/s 764 mmHg 52%
14:00 +17°C° 0 mm 2 m/s 764 mmHg 51%
15:00 +17°C° 0 mm 3 m/s 763 mmHg 50%
16:00 +15°C° 0 mm 2 m/s 763 mmHg 60%
17:00 +13°C° 0 mm 2 m/s 763 mmHg 71%
18:00 +10°C° 0 mm 2 m/s 763 mmHg 81%
19:00 +10°C° 0 mm 2 m/s 763 mmHg 83%
20:00 +9°C° 0 mm 2 m/s 763 mmHg 85%
21:00 +9°C° 0 mm 1 m/s 763 mmHg 87%
22:00 +9°C° 0 mm 1 m/s 762 mmHg 87%
23:00 +9°C° 0 mm 1 m/s 762 mmHg 87%

20 Janeiro, Quarta-feira

Tempo Temperatura Precipitação Vento Pressão Humidade
00:00 +9°C° 0 mm 1 m/s 761 mmHg 87%
01:00 +9°C° 0 mm 1 m/s 761 mmHg 88%
02:00 +8°C° 0 mm 1 m/s 760 mmHg 88%
03:00 +8°C° 0 mm 1 m/s 760 mmHg 89%
04:00 +8°C° 0 mm 1 m/s 760 mmHg 89%
05:00 +8°C° 0 mm 1 m/s 759 mmHg 89%
06:00 +8°C° 0 mm 1 m/s 759 mmHg 89%
07:00 +9°C° 0 mm 1 m/s 758 mmHg 85%
08:00 +10°C° 0 mm 1 m/s 758 mmHg 82%
09:00 +12°C° 0 mm 1 m/s 758 mmHg 79%
10:00 +13°C° 0 mm 1 m/s 758 mmHg 73%
11:00 +14°C° 0 mm 2 m/s 757 mmHg 67%
12:00 +15°C° 0 mm 2 m/s 757 mmHg 61%
13:00 +15°C° 0 mm 2 m/s 757 mmHg 60%
14:00 +15°C° 0 mm 2 m/s 756 mmHg 59%
15:00 +15°C° 0 mm 2 m/s 756 mmHg 57%
16:00 +14°C° 0 mm 2 m/s 756 mmHg 60%
17:00 +13°C° 0 mm 1 m/s 756 mmHg 63%
18:00 +12°C° 0 mm 1 m/s 756 mmHg 65%
19:00 +12°C° 0 mm 2 m/s 756 mmHg 64%
20:00 +12°C° 0 mm 2 m/s 756 mmHg 64%
21:00 +11°C° 0 mm 3 m/s 757 mmHg 63%
22:00 +11°C° 0 mm 3 m/s 757 mmHg 64%
23:00 +11°C° 0 mm 3 m/s 757 mmHg 65%

21 Janeiro, Quinta-feira

Tempo Temperatura Precipitação Vento Pressão Humidade
00:00 +11°C° 0 mm 4 m/s 758 mmHg 66%
01:00 +11°C° 0 mm 4 m/s 758 mmHg 69%
02:00 +10°C° 0 mm 4 m/s 758 mmHg 73%
03:00 +10°C° 0 mm 4 m/s 758 mmHg 76%
04:00 +10°C° 0 mm 4 m/s 758 mmHg 76%
05:00 +10°C° 0 mm 4 m/s 759 mmHg 76%
06:00 +11°C° 0 mm 3 m/s 759 mmHg 76%
07:00 +11°C° 0 mm 3 m/s 759 mmHg 73%
08:00 +12°C° 0 mm 3 m/s 760 mmHg 70%
09:00 +13°C° 0 mm 4 m/s 760 mmHg 67%
10:00 +15°C° 0 mm 4 m/s 760 mmHg 61%
11:00 +16°C° 0 mm 5 m/s 760 mmHg 54%
12:00 +19°C° 0 mm 5 m/s 760 mmHg 48%
13:00 +19°C° 0 mm 5 m/s 760 mmHg 47%
14:00 +20°C° 0 mm 5 m/s 759 mmHg 45%
15:00 +20°C° 0 mm 5 m/s 759 mmHg 44%
16:00 +18°C° 0 mm 4 m/s 759 mmHg 52%
17:00 +15°C° 0 mm 4 m/s 759 mmHg 61%
18:00 +13°C° 0 mm 3 m/s 758 mmHg 70%
19:00 +13°C° 0 mm 3 m/s 758 mmHg 68%
20:00 +13°C° 0 mm 3 m/s 759 mmHg 67%
21:00 +13°C° 0 mm 3 m/s 759 mmHg 66%
22:00 +13°C° 0 mm 4 m/s 758 mmHg 66%
23:00 +13°C° 0 mm 4 m/s 758 mmHg 66%
Mostrar mais

Necessitamos do seu Consentimento

A Meteoprog e os seus Fornecedores de Serviços podem armazenar e aceder a dados pessoais como cookies, identificadores do dispositivo ou outras tecnologias semelhantes existentes no seu dispositivo e processar estes dados para personalizar conteúdos e anúncios, assim como funcionalidades nas redes sociais e análise de tráfego.

  • Armazenar e/ou aceder a informações no seu dispositivo

    Os cookies, identificadores do dispositivo ou outras informações podem ser armazenados ou acedidos no seu dispositivo, para os fins acima indicados.

  • Anúncios e conteúdos personalizados, medição de anúncios e conteúdos, dados sobre o público-alvo e desenvolvimento de produtos

    Os anúncios e os conteúdos podem ser personalizados com base num perfil. Podem ser adicionados dados adicionais para uma maior personalização dos anúncios e dos conteúdos. A eficácia dos anúncios e dos conteúdos pode ser medida. Podem ser obtidas informações sobre o público que visualizou os anúncios e os conteúdos. Estes dados podem ser usados para desenvolver ou melhorar sistemas, softwares ou a experiência do utilizador.

Ao clicar em "Eu concordo”, permitirá o uso de cookies, identificadores do dispositivo e web beacons mencionados ou outras tecnologias semelhantes. As configurações do navegador do seu dispositivo podem ser alteradas.

Para certos fins, podem ser invocados interesses legítimos ao invés de consentimento. Pode ler mais informação sobre este assunto na nossa Política de Privacidade e Cookies.